BREEZE-KM DEB, 41723

Orbit data source: Space-Track

BREEZE-KM DEB, 41723 is space debris in LEO originally from a launch on Tue, 31 Mar 2015 UTC launched from the Plesetsk Missile And Space Complex (PKMTR). Debris objects in space refer to the collection of defunct objects orbiting the Earth. Examples of debris include non-operational satellites, rocket bodies, and fragments generated from explosions, collisions, or faulty payload assembly.

Loading next visibility...
Identifier
41723, 2015-020L
Orbit
LEO
Country
Flag of CISCIS
Related business
Manufacturer
Khrunichev
Mission
Spacecraft
Bus & Motor
Unknown
Mass
Unknown
Launch date (UTC)
2015-03-31 (11 years ago)
Launch vehicle
Unknown
Launch site
Plesetsk Missile And Space Complex (PKMTR)
Object type
Payload
Rocket body
Debris
Shape & HBR
Unknown shape, 0.1 m
Radar Cross Section
Small (<0.1 m²)

Expand to show TLE details & history
Last TLE update: 2 days ago

TLE from 2 days ago
0 BREEZE-KM DEB
1 41723U 15020L   26226.38928774  .00000245  00000-0  76084-3 0  9990
2 41723  82.4869 108.6315 0221312  83.3605 279.2639 12.92950783506854
Epoch: 2026-08-14T09:20Z
TLE epoch observation values (Epoch: 2026-08-14T09:20:34.460Z)
Latitude
-0.00008°
Longitude
5.67269°
Altitude
1,268.962 km
Speed
7.232 km/s
True Right ascension
07h 14m 31s
True Declination
0° 00' 00"
Sunlit
Object was in daylight at epoch
Visualization orbit readout
Latitude
Unknown
Longitude
Unknown
Altitude
Unknown
Speed
Unknown
Apparent Right ascension
Unknown
Apparent Declination
Unknown
Sunlit
N/A
Visualization observer readout
Local Sidereal Time
13:42:30
Azimuth
Unknown
Elevation
Unknown
Doppler factor
Unknown
Orbital elements
Apogee altitude
1,456.755 km
Perigee altitude
1,117.473 km
Semi-major axis
7,665.251 km
Eccentricity
0.02213
Inclination
82.4869°
RAAN
108.6315°
Arg. of periapsis
83.3605°
True anomaly
276.75054°
Mean anomaly
279.2639°
Eccentric anomaly
278.00824°
Mean motion
3.2341 °/min
Orbital period
111.31 mins
BSTAR
0.00076084
Loading maneuver chart data...
Computing Atmospheric mass density...
Loading historical data...
Loading historical data...
Loading historical data...
Loading historical data...
Loading historical data...
Loading historical data...
Loading historical data...

Documentation

Showing up to 5 results
|